GW0833 Weather Reports


Display with metric or nautical units.
time (UTC)temp
F
wind
direction
speed
MPH
gust
MPH
rain 1hr
in
rain 24hr
in
rain mn
in
humidity
%
barometer
mb
20220705100059 68 227 2.0 13.0 0.00 0.00 0.00 95 1009.1
20220705095315 69 238 8.0 15.0 0.00 0.00 0.00 95 1010.2
20220705094552 68 236 5.0 11.0 0.00 0.00 0.00 95 1009.1
20220705094312 69 190 5.0 14.0 0.00 0.00 0.00 95 1010.2
20220705093330 69 227 4.0 11.0 0.00 0.00 0.00 95 1010.2
20220705093034 68 214 6.0 11.0 0.00 0.00 0.00 95 1009.1
20220705092325 69 215 4.0 10.0 0.00 0.00 0.00 95 1010.3
20220705091531 69 198 4.0 10.0 0.00 0.00 0.00 95 1009.3
20220705091314 69 192 7.0 10.0 0.00 0.00 0.00 95 1010.5
20220705090330 69 215 6.0 14.0 0.00 0.00 0.00 95 1010.5
20220705090010 68 209 6.0 12.0 0.00 0.00 0.00 95 1009.5
20220705085326 69 192 6.0 9.0 0.00 0.00 0.00 95 1010.6
20220705084602 68 198 4.0 10.0 0.00 0.00 0.00 95 1009.7
20220705084319 69 213 5.0 10.0 0.00 0.00 0.00 95 1010.7
20220705083312 69 210 5.0 11.0 0.00 0.00 0.00 94 1010.5
20220705083043 68 190 5.0 11.0 0.00 0.00 0.00 94 1009.5
20220705082334 69 198 4.0 9.0 0.00 0.00 0.00 94 1010.7
20220705081546 68 213 5.0 12.0 0.00 0.00 0.00 94 1009.7
20220705081322 69 206 6.0 12.0 0.00 0.00 0.00 94 1010.7
20220705080320 69 215 7.0 14.0 0.00 0.00 0.00 91 1010.8
20220705080047 69 227 7.0 14.0 0.00 0.00 0.00 90 1009.8
20220705075335 71 225 7.0 13.0 0.00 0.00 0.00 87 1010.9
20220705074534 71 186 6.0 16.0 0.00 0.00 0.00 84 1009.9
20220705074320 72 215 6.0 16.0 0.00 0.00 0.00 83 1010.9
20220705073317 73 205 6.0 17.0 0.00 0.00 0.00 80 1010.8
20220705073021 73 190 8.0 18.0 0.00 0.00 0.00 79 1009.7
20220705072313 73 192 10.0 19.0 0.00 0.00 0.00 78 1010.9
20220705071522 72 204 6.0 15.0 0.00 0.00 0.00 79 1009.9
20220705071328 73 180 6.0 15.0 0.00 0.00 0.00 79 1010.9
20220705070318 73 186 7.0 11.0 0.00 0.00 0.00 80 1010.8
20220705070001 72 188 6.0 12.0 0.00 0.00 0.00 81 1009.8
20220705065314 72 191 4.0 10.0 0.00 0.00 0.00 83 1010.9
20220705064554 71 201 4.0 10.0 0.00 0.00 0.00 84 1010.0
20220705064328 72 178 4.0 9.0 0.00 0.00 0.00 84 1011.2
20220705063323 72 188 3.0 9.0 0.00 0.00 0.00 84 1011.4
20220705063041 71 182 4.0 9.0 0.00 0.00 0.00 84 1010.5
20220705062336 72 186 2.0 7.0 0.00 0.00 0.00 83 1011.4
20220705061538 72 203 3.0 8.0 0.00 0.00 0.00 83 1010.7
20220705061331 72 203 0.0 8.0 0.00 0.00 0.00 83 1011.7
20220705060319 73 208 3.0 7.0 0.00 0.00 0.00 82 1012.0
20220705060022 72 191 3.0 7.0 0.00 0.00 0.00 82 1011.0
20220705055314 73 196 3.0 8.0 0.00 0.00 0.00 80 1012.3
20220705054535 73 194 2.0 8.0 0.00 0.00 0.00 79 1011.5
20220705054330 74 196 2.0 8.0 0.00 0.00 0.00 79 1012.7
20220705053318 76 211 5.0 8.0 0.00 0.00 0.00 73 1013.2
20220705053013 76 200 4.0 11.0 0.00 0.00 0.00 71 1012.0
20220705052318 78 225 7.0 11.0 0.00 0.00 0.00 67 1013.5
20220705051506 79 232 6.0 12.0 0.00 0.00 0.00 60 1012.3
20220705051313 80 209 6.0 12.0 0.00 0.00 0.00 60 1013.4
20220705050322 79 235 4.0 8.0 0.00 0.00 0.00 60 1013.8
20220705050057 79 215 3.0 8.0 0.00 0.00 0.00 61 1012.7
20220705045318 79 216 4.0 8.0 0.00 0.00 0.00 61 1013.6
20220705044541 78 194 2.0 9.0 0.00 0.00 0.00 61 1012.4
20220705044313 79 198 3.0 9.0 0.00 0.00 0.00 62 1013.3
20220705043331 79 189 4.0 8.0 0.00 0.00 0.00 62 1013.1
20220705043022 78 202 1.0 8.0 0.00 0.00 0.00 62 1012.1
20220705042325 79 182 3.0 9.0 0.00 0.00 0.00 61 1013.0
20220705041513 78 190 3.0 7.0 0.00 0.00 0.00 62 1012.1
20220705041322 79 189 2.0 7.0 0.00 0.00 0.00 62 1013.0
20220705040312 79 198 0.0 7.0 0.00 0.00 0.00 61 1013.2
20220705040103 78 198 3.0 7.0 0.00 0.00 0.00 61 1012.2
20220705035325 79 183 2.0 10.0 0.00 0.00 0.00 61 1013.5
20220705034555 79 138 5.0 10.0 0.00 0.00 0.00 61 1012.5
20220705034320 79 178 4.0 10.0 0.00 0.00 0.00 61 1013.5
20220705033317 79 182 2.0 9.0 0.00 0.00 0.00 60 1013.5
20220705033035 79 180 1.0 9.0 0.00 0.00 0.00 61 1012.6
20220705032335 79 188 2.0 9.0 0.00 0.00 0.00 61 1013.9
20220705031534 79 169 3.0 9.0 0.00 0.00 0.00 60 1012.7
20220705031330 79 148 3.0 8.0 0.00 0.00 0.00 60 1013.8
20220705030320 79 206 1.0 7.0 0.00 0.00 0.00 60 1014.1
20220705030024 79 171 0.0 6.0 0.00 0.00 0.00 61 1013.1
20220705025317 79 157 2.0 5.0 0.00 0.00 0.00 61 1014.3
20220705024517 79 146 1.0 5.0 0.00 0.00 0.00 61 1013.5
20220705024312 79 147 1.0 5.0 0.00 0.00 0.00 61 1014.5
20220705023320 79 153 1.0 5.0 0.00 0.00 0.00 61 1014.6
20220705023009 79 144 0.0 5.0 0.00 0.00 0.00 62 1013.6
20220705022319 79 157 0.0 7.0 0.00 0.00 0.00 62 1014.7
20220705021600 78 154 0.0 6.0 0.00 0.00 0.00 63 1013.8
20220705021313 79 90 0.0 4.0 0.00 0.00 0.00 63 1014.7
20220705020331 79 80 0.0 3.0 0.00 0.00 0.00 65 1014.8
20220705020044 78 80 0.0 5.0 0.00 0.00 0.00 66 1013.8
20220705015328 79 49 1.0 3.0 0.00 0.00 0.00 67 1015.0
20220705014536 78 40 0.0 0.0 0.00 0.00 0.00 69 1014.3
20220705014314 79 40 0.0 0.0 0.00 0.00 0.00 70 1015.3
20220705013312 78 40 0.0 0.0 0.00 0.00 0.00 71 1015.4
20220705013025 78 40 0.0 0.0 0.00 0.00 0.00 71 1014.4
20220705012327 78 40 0.0 0.0 0.00 0.00 0.00 75 1015.3
20220705011510 78 40 0.0 0.0 0.00 0.00 0.00 77 1014.3
20220705011322 79 40 0.0 0.0 0.00 0.00 0.00 77 1015.4
20220705010312 79 40 0.0 0.0 0.00 0.00 0.00 77 1015.4
20220705010054 78 40 0.0 0.0 0.00 0.00 0.00 78 1014.4
20220705005326 79 40 0.0 0.0 0.00 0.00 0.00 78 1015.4
20220705004546 78 40 0.0 0.0 0.00 0.00 0.00 80 1014.4
20220705004321 78 40 0.0 0.0 0.00 0.00 0.00 81 1015.4
20220705003317 78 40 0.0 0.0 0.00 0.00 0.00 81 1015.5
20220705003032 78 40 0.0 0.0 0.00 0.00 0.00 81 1014.6
20220705002312 78 40 0.0 0.0 0.00 0.00 0.00 80 1015.8
20220705001530 78 40 0.0 0.0 0.00 0.00 0.00 79 1014.8
20220705001329 78 40 0.0 0.0 0.00 0.00 0.00 79 1015.9
20220705000319 78 40 0.0 0.0 0.00 0.00 0.00 79 1015.7
20220705000021 78 40 0.0 0.0 0.00 0.00 0.00 79 1014.7
20220704235311 79 40 0.0 0.0 0.00 0.00 0.00 79 1015.6
20220704234519 78 40 0.0 0.0 0.00 0.00 0.00 79 1014.8
20220704234326 79 40 0.0 0.0 0.00 0.00 0.00 79 1015.8
20220704233316 78 40 0.0 2.0 0.00 0.00 0.00 81 1016.1
20220704233010 77 40 0.0 4.0 0.00 0.00 0.00 81 1015.1
20220704232314 78 40 1.0 4.0 0.00 0.00 0.00 81 1016.2
20220704231512 77 40 1.0 4.0 0.00 0.00 0.00 82 1015.3
20220704231312 77 40 0.0 4.0 0.00 0.00 0.00 83 1016.3
20220704230321 77 40 1.0 5.0 0.00 0.00 0.00 82 1016.4
20220704230007 77 40 1.0 5.0 0.00 0.00 0.00 81 1015.3
20220704225318 77 38 1.0 5.0 0.00 0.00 0.00 81 1016.4
20220704224600 77 32 1.0 5.0 0.00 0.00 0.00 80 1015.4
20220704224314 77 32 0.0 5.0 0.00 0.00 0.00 80 1016.4
20220704223332 78 32 1.0 5.0 0.00 0.00 0.00 80 1016.5
20220704223043 77 30 1.0 5.0 0.00 0.00 0.00 80 1015.5
20220704222319 78 25 1.0 5.0 0.00 0.00 0.00 80 1016.6
20220704221536 78 42 1.0 7.0 0.00 0.00 0.00 80 1015.6
20220704221316 78 5 1.0 9.0 0.00 0.00 0.00 80 1016.6
20220704220314 79 33 1.0 10.0 0.00 0.00 0.00 76 1016.6
20220704220018 78 42 5.0 10.0 0.00 0.00 0.00 74 1015.6
20220704215328 80 19 3.0 7.0 0.00 0.00 0.00 72 1016.8
20220704214518 79 42 4.0 9.0 0.00 0.00 0.00 73 1016.0
20220704214324 80 59 5.0 9.0 0.00 0.00 0.00 73 1017.0
20220704213314 83 28 5.0 10.0 0.00 0.00 0.00 69 1016.9
20220704213055 83 40 2.0 6.0 0.00 0.00 0.00 68 1015.8
20220704212330 85 42 1.0 6.0 0.00 0.00 0.00 64 1016.9
20220704211548 86 108 2.0 6.0 0.00 0.00 0.00 57 1015.8
20220704211325 87 196 2.0 6.0 0.00 0.00 0.00 48 1016.9
20220704210322 85 300 2.0 6.0 0.00 0.00 0.00 51 1016.9
20220704210039 84 18 1.0 7.0 0.00 0.00 0.00 59 1015.8
20220704205311 85 5 2.0 5.0 0.00 0.00 0.00 61 1016.9
20220704204530 84 295 0.0 4.0 0.00 0.00 0.00 60 1015.8
20220704204335 85 295 1.0 4.0 0.00 0.00 0.00 60 1016.9
20220704203326 85 9 1.0 3.0 0.00 0.00 0.00 61 1017.0
20220704203019 84 10 0.0 3.0 0.00 0.00 0.00 62 1016.1
20220704202326 85 10 0.0 3.0 0.00 0.00 0.00 62 1017.0
20220704201506 84 9 1.0 4.0 0.00 0.00 0.00 62 1016.1
20220704201321 85 55 0.0 4.0 0.00 0.00 0.00 62 1017.1
20220704200336 83 38 0.0 6.0 0.00 0.00 0.00 65 1017.1
20220704200049 83 38 0.0 6.0 0.00 0.00 0.00 66 1016.2
20220704195333 83 43 2.0 9.0 0.00 0.00 0.00 65 1017.3
20220704194536 83 38 3.0 7.0 0.00 0.00 0.00 63 1016.3
20220704194317 84 49 5.0 7.0 0.00 0.00 0.00 62 1017.4
20220704193312 84 40 2.0 4.0 0.00 0.00 0.00 64 1017.6
20220704193020 83 41 1.0 4.0 0.00 0.00 0.00 64 1016.6
20220704192327 83 45 1.0 8.0 0.00 0.00 0.00 64 1017.8
20220704191510 82 37 0.0 8.0 0.00 0.00 0.00 64 1016.9
20220704191322 83 37 1.0 9.0 0.00 0.00 0.00 64 1018.0
20220704190339 83 45 5.0 9.0 0.00 0.00 0.00 63 1018.1
20220704190053 83 44 5.0 9.0 0.00 0.00 0.00 62 1017.1
20220704185325 84 47 4.0 9.0 0.00 0.00 0.00 62 1018.3
20220704184552 83 58 5.0 9.0 0.00 0.00 0.00 63 1017.3
20220704184321 83 28 3.0 9.0 0.00 0.00 0.00 63 1018.4
20220704183317 82 40 3.0 9.0 0.00 0.00 0.00 64 1018.6
20220704183025 82 51 4.0 9.0 0.00 0.00 0.00 64 1017.5
20220704182331 83 61 3.0 9.0 0.00 0.00 0.00 63 1018.7
20220704181527 82 19 2.0 9.0 0.00 0.00 0.00 64 1017.9
20220704181326 82 28 1.0 9.0 0.00 0.00 0.00 66 1018.9
20220704180317 82 69 3.0 8.0 0.00 0.00 0.00 65 1019.1
20220704180023 82 51 4.0 8.0 0.00 0.00 0.00 64 1018.2
20220704175312 82 47 2.0 8.0 0.00 0.00 0.00 64 1019.2
20220704174527 80 360 1.0 9.0 0.00 0.00 0.00 67 1018.2
20220704174329 80 40 1.0 9.0 0.00 0.00 0.00 67 1019.2
20220704173320 81 32 3.0 9.0 0.00 0.00 0.00 67 1019.1
20220704173012 80 15 3.0 9.0 0.00 0.00 0.00 66 1018.3
20220704172318 80 71 4.0 9.0 0.00 0.00 0.00 67 1019.4
20220704171505 80 5 5.0 11.0 0.00 0.00 0.00 67 1018.4
20220704171313 80 51 6.0 11.0 0.00 0.00 0.00 67 1019.4
20220704170331 83 52 3.0 7.0 0.00 0.00 0.00 64 1019.5
20220704170048 82 17 2.0 10.0 0.00 0.00 0.00 64 1018.7
20220704165317 84 59 5.0 10.0 0.00 0.00 0.00 61 1019.6
20220704164539 83 292 2.0 7.0 0.00 0.00 0.00 50 1018.5
20220704164311 84 296 3.0 8.0 0.00 0.00 0.00 48 1019.4
20220704163329 83 305 2.0 6.0 0.00 0.00 0.00 56 1019.3
20220704163020 83 305 1.0 6.0 0.00 0.00 0.00 53 1018.5
20220704162323 83 234 2.0 4.0 0.00 0.00 0.00 54 1019.6
20220704161511 82 236 1.0 5.0 0.00 0.00 0.00 55 1018.7
20220704161319 82 234 3.0 5.0 0.00 0.00 0.00 54 1019.7
20220704160336 81 283 2.0 7.0 0.00 0.00 0.00 56 1019.8
20220704160057 81 283 2.0 7.0 0.00 0.00 0.00 57 1018.9
20220704155322 81 284 1.0 5.0 0.00 0.00 0.00 61 1020.1
20220704154542 80 277 0.0 3.0 0.00 0.00 0.00 60 1019.2
20220704154316 81 277 1.0 3.0 0.00 0.00 0.00 61 1020.2
20220704153330 78 277 0.0 3.0 0.00 0.00 0.00 63 1020.1
20220704153022 78 277 0.0 4.0 0.00 0.00 0.00 66 1019.2
20220704152327 78 277 2.0 4.0 0.00 0.00 0.00 67 1020.2
20220704151519 78 269 1.0 3.0 0.00 0.00 0.00 67 1019.3
20220704151321 78 265 0.0 2.0 0.00 0.00 0.00 68 1020.3
20220704150331 78 265 3.0 6.0 0.00 0.00 0.00 66 1020.3
20220704150112 78 209 1.0 3.0 0.00 0.00 0.00 66 1019.4
20220704145325 78 207 1.0 3.0 0.00 0.00 0.00 63 1020.2
20220704144549 77 208 0.0 4.0 0.00 0.00 0.00 61 1019.3
20220704144320 78 208 1.0 4.0 0.00 0.00 0.00 60 1020.2
20220704143317 78 175 0.0 0.0 0.00 0.00 0.00 63 1020.3
20220704143045 77 175 0.0 1.0 0.00 0.00 0.00 62 1019.5
20220704142332 78 175 0.0 3.0 0.00 0.00 0.00 64 1020.4
20220704141547 77 188 0.0 0.0 0.00 0.00 0.00 64 1019.6
20220704141324 77 188 0.0 1.0 0.00 0.00 0.00 65 1020.5
20220704140317 76 188 1.0 3.0 0.00 0.00 0.00 65 1020.5
20220704140021 76 188 1.0 3.0 0.00 0.00 0.00 66 1019.6
20220704135313 75 188 0.0 3.0 0.00 0.00 0.00 67 1020.4
20220704134522 74 188 0.0 3.0 0.00 0.00 0.00 67 1019.7
20220704134331 75 188 1.0 3.0 0.00 0.00 0.00 68 1020.6
20220704133321 74 188 1.0 3.0 0.00 0.00 0.00 70 1020.7
20220704133015 73 188 0.0 1.0 0.00 0.00 0.00 70 1019.8
20220704132317 73 188 0.0 2.0 0.00 0.00 0.00 71 1020.6
20220704131506 71 188 0.0 0.0 0.00 0.00 0.00 73 1019.6
20220704131313 72 188 0.0 0.0 0.00 0.00 0.00 74 1020.5
20220704130324 71 188 0.0 3.0 0.00 0.00 0.00 75 1020.4
20220704130050 70 188 0.0 4.0 0.00 0.00 0.00 75 1019.6
20220704125319 70 188 2.0 4.0 0.00 0.00 0.00 75 1020.3
20220704124548 69 187 0.0 2.0 0.00 0.00 0.00 78 1019.3
20220704124313 69 187 0.0 2.0 0.00 0.00 0.00 78 1020.2
20220704123331 67 187 0.0 3.0 0.00 0.00 0.00 80 1020.2
20220704123023 66 188 0.0 3.0 0.00 0.00 0.00 81 1019.4
20220704122327 66 187 1.0 5.0 0.00 0.00 0.00 81 1020.3
20220704121520 65 188 3.0 6.0 0.00 0.00 0.00 81 1019.5
20220704121323 66 188 4.0 6.0 0.00 0.00 0.00 81 1020.4
20220704120314 65 175 0.0 5.0 0.00 0.00 0.00 82 1020.4
20220704120100 64 175 0.0 5.0 0.00 0.00 0.00 82 1019.6
20220704115330 65 174 3.0 5.0 0.00 0.00 0.00 81 1020.5
20220704114552 64 169 0.0 6.0 0.00 0.00 0.00 81 1019.6
20220704114326 65 169 2.0 6.0 0.00 0.00 0.00 81 1020.4
20220704113324 65 83 0.0 0.0 0.00 0.00 0.00 81 1020.6
20220704113034 64 83 0.0 3.0 0.00 0.00 0.00 81 1019.8
20220704112323 64 83 0.0 3.0 0.00 0.00 0.00 81 1020.8
20220704111529 63 83 0.0 4.0 0.00 0.00 0.00 81 1019.9
20220704111338 64 83 0.0 4.0 0.00 0.00 0.00 81 1020.7
20220704110326 64 82 0.0 0.0 0.00 0.00 0.00 81 1020.8
20220704110018 63 82 0.0 0.0 0.00 0.00 0.00 81 1019.9
20220704105322 63 82 0.0 0.0 0.00 0.00 0.00 81 1020.8
20220704104508 63 82 0.0 0.0 0.00 0.00 0.00 82 1020.1
20220704104318 63 82 0.0 0.0 0.00 0.00 0.00 82 1021.0
20220704103336 63 82 0.0 0.0 0.00 0.00 0.00 83 1021.1
20220704103052 62 82 0.0 0.0 0.00 0.00 0.00 83 1020.1
20220704102324 63 82 0.0 0.0 0.00 0.00 0.00 83 1020.8
20220704101545 62 82 0.0 0.0 0.00 0.00 0.00 83 1019.9
20220704101318 63 82 0.0 0.0 0.00 0.00 0.00 83 1020.7
20220704100316 63 82 0.0 0.0 0.00 0.00 0.00 83 1020.8